Theta_e
361 362 361 359 357 355 356 356 357 359 360 358 357 358 357 361 363 362 362 364 366 367 369 372 371 373 371 377 373 370 373 370 370 369 366 367 364 360 356 356 357 356
361 362 362 360 360 359 357 357 359 357 360 360 357 355 359 361 360 362 363 362 365 364 368 367 370 372 373 370 374 368 372 372 369 367 368 369 367 366 360 358 355 358
361 361 360 359 355 358 353 357 360 358 356 357 357 357 355 358 360 363 364 363 362 360 364 366 366 368 368 370 376 369 370 373 368 366 369 368 367 367 367 356 355 356
363 361 359 358 355 355 356 355 357 359 355 355 355 354 354 353 358 360 363 363 362 361 362 363 363 363 365 367 371 370 370 374 371 370 371 373 368 366 367 363 358 355
363 360 358 358 356 357 358 354 353 355 355 353 355 356 356 357 356 357 359 360 363 361 361 362 362 362 364 366 368 367 367 368 369 371 370 373 371 367 365 363 363 357
366 364 362 358 358 357 354 355 355 351 354 351 353 352 355 355 354 355 357 357 356 356 354 358 360 360 360 363 365 365 363 360 363 367 366 366 365 365 362 364 365 361
365 365 361 358 358 356 356 356 357 356 353 353 355 353 353 355 356 357 357 356 353 355 352 356 360 359 360 362 364 365 364 363 363 366 365 364 364 363 364 365 368 364
363 364 363 360 357 356 356 355 357 357 356 354 350 354 354 353 358 357 356 355 353 353 356 353 359 361 357 358 361 362 363 358 359 362 364 364 364 363 362 361 366 366
362 363 364 361 357 354 353 352 354 357 358 354 350 351 355 354 354 356 357 358 356 355 358 356 360 358 358 357 359 360 361 357 353 357 359 359 359 361 361 362 360 362
362 360 359 359 354 353 352 352 349 353 357 354 352 349 350 355 355 354 356 360 357 356 357 359 358 359 359 356 356 358 359 361 360 358 358 358 357 357 357 358 358 359
361 359 356 357 354 352 351 350 349 347 351 353 352 349 348 352 355 355 357 357 355 356 356 358 357 359 360 356 354 356 358 358 358 359 358 358 358 358 358 358 358 357
361 361 356 355 355 352 350 350 349 347 347 350 351 350 349 347 352 352 352 355 358 358 357 359 360 360 361 359 353 353 354 356 356 356 355 357 356 354 355 357 356 357
358 358 357 355 355 355 353 351 350 348 346 347 350 350 348 346 346 352 352 352 356 358 356 358 360 359 362 362 358 354 353 356 352 353 354 355 356 354 353 353 353 353
361 361 359 358 357 361 358 352 350 349 350 349 350 350 348 346 344 346 351 352 353 356 357 357 359 359 360 362 361 355 351 351 353 352 350 352 351 352 352 350 350 351
364 362 363 361 361 361 360 356 353 354 354 353 352 350 349 348 346 344 346 350 352 354 356 354 352 356 356 358 359 358 353 347 348 351 351 351 351 350 351 351 350 348
364 364 364 363 362 363 366 363 358 355 351 352 351 350 353 355 353 348 344 346 350 354 355 353 350 351 356 349 352 357 356 346 345 351 353 352 352 350 347 346 348 349
362 362 365 365 367 364 365 366 365 362 362 361 357 355 357 362 357 350 346 343 345 350 352 352 350 347 345 337 338 344 354 355 350 351 355 353 350 355 353 347 344 345
360 362 364 363 364 366 366 368 367 365 364 363 357 355 362 356 355 355 356 350 347 347 349 351 351 347 333 334 336 336 346 358 352 350 347 349 352 350 350 351 348 343
357 360 364 364 362 364 366 366 367 366 364 361 358 360 359 362 363 358 359 358 353 352 348 349 350 343 331 330 333 334 335 347 350 350 348 347 349 353 353 353 354 351
358 355 359 363 364 364 363 365 366 366 364 362 361 362 361 360 360 361 361 363 360 358 357 352 352 345 329 327 329 330 332 339 354 349 348 348 351 352 354 356 358 356
360 356 356 358 364 363 363 365 364 366 365 363 360 359 361 361 360 361 361 362 361 359 359 354 352 337 326 325 325 326 329 335 356 354 352 351 350 353 360 357 360 359
355 356 358 358 363 363 362 361 364 365 365 365 362 358 359 360 362 362 361 360 361 360 358 357 356 334 324 324 323 324 328 347 356 358 357 355 354 356 356 360 361 362
353 353 355 357 357 354 357 357 359 362 363 365 362 360 356 356 359 360 363 361 361 361 360 360 358 344 323 321 321 322 330 353 358 357 358 357 356 357 358 358 359 363
350 352 353 354 352 352 353 357 357 356 355 362 361 359 358 355 355 359 361 362 361 360 359 360 360 349 321 318 318 319 335 356 358 357 357 358 358 359 359 360 361 361
347 350 352 351 349 351 353 352 354 354 357 358 358 357 357 358 358 357 358 359 359 360 359 358 359 351 319 318 316 317 334 358 359 357 356 357 357 358 360 360 361 362
345 348 349 350 350 351 353 353 355 356 356 357 356 357 356 356 356 356 358 358 357 358 359 359 359 361 349 316 316 315 321 357 360 357 355 356 358 358 359 361 361 362
Wind_Speed
11 10 10 9 9 8 8 8 8 8 7 7 6 6 6 5 5 5 6 6 6 5 5 4 4 4 4 3 3 3 1 2 2 3 3 4 4 4 4 4 4 2
12 11 9 10 8 8 8 8 8 8 8 7 7 7 6 6 7 5 5 6 6 6 5 6 5 5 4 4 4 4 3 3 4 2 3 4 4 3 4 4 5 3
13 12 12 12 11 12 11 9 8 8 8 9 8 7 8 7 7 7 6 6 6 6 6 6 6 6 6 5 4 4 5 4 4 4 3 3 4 4 3 5 5 5
14 14 13 13 12 12 11 10 9 8 9 8 9 9 7 7 8 9 7 8 6 6 7 7 6 7 7 6 5 5 5 5 5 4 3 3 4 5 4 4 4 4
15 14 13 12 12 10 11 11 11 11 10 9 10 10 9 7 9 10 9 8 7 8 7 7 7 7 7 6 7 6 5 5 6 5 5 4 4 5 5 4 4 4
14 13 13 12 12 11 12 12 12 11 11 11 10 10 10 11 9 9 9 10 9 9 9 8 8 8 7 7 7 6 6 6 5 7 6 6 5 5 5 4 4 5
15 14 15 13 13 13 12 12 11 11 11 11 10 10 10 11 11 9 9 10 10 9 9 8 8 8 7 6 7 7 6 6 5 6 7 6 6 6 6 5 5 5
15 14 14 13 14 14 14 13 12 11 11 11 12 11 11 11 12 12 11 10 10 10 9 9 8 8 9 8 7 8 8 7 7 7 6 6 6 6 7 6 5 6
14 14 13 15 15 14 15 15 14 13 12 12 12 12 12 11 11 12 11 11 10 9 9 9 8 9 9 8 7 8 8 8 7 8 8 8 8 8 7 7 7 7
14 14 16 15 15 14 15 15 14 14 13 13 13 12 12 12 12 12 12 10 11 10 10 9 9 9 10 10 9 9 9 9 8 7 7 8 8 8 8 8 8 8
16 15 15 16 16 14 16 16 15 14 13 14 14 14 13 13 12 12 11 12 12 13 12 11 11 11 10 11 10 10 10 9 9 8 8 8 8 8 8 8 8 9
14 14 16 16 16 15 16 16 15 15 14 14 14 15 14 13 13 13 12 13 13 13 13 12 12 11 11 11 12 11 10 10 10 10 9 9 10 9 9 9 9 9
15 16 15 15 15 15 14 15 15 15 15 15 15 14 15 15 14 14 13 14 14 13 14 13 13 13 11 11 11 11 11 11 11 11 10 9 10 11 10 10 10 10
12 13 14 14 14 12 13 14 15 15 14 13 13 15 15 16 16 15 14 14 14 14 14 13 13 13 12 12 12 12 12 12 11 11 11 11 11 11 11 11 11 11
12 12 11 12 13 13 14 14 14 13 12 12 12 13 14 15 15 15 15 15 14 14 14 14 14 14 12 13 13 14 13 13 13 13 12 11 11 12 11 11 11 11
7 8 8 11 12 12 12 13 14 13 14 14 13 14 12 11 12 13 15 15 15 15 14 14 13 12 13 17 15 13 14 13 12 11 12 11 11 11 12 13 13 12
8 10 10 11 10 11 12 12 12 11 11 11 12 13 12 10 12 14 15 15 16 15 16 14 14 13 17 18 18 17 13 13 12 11 11 12 13 11 11 13 13 13
10 9 9 10 11 11 12 12 12 12 11 12 14 15 12 14 15 14 13 15 14 15 16 15 14 15 17 19 20 19 16 13 13 12 12 13 13 14 13 13 13 13
13 12 10 10 11 12 11 12 12 13 13 13 15 14 13 13 13 14 14 14 15 14 15 16 15 16 17 20 20 21 21 17 14 13 13 14 13 14 14 12 12 12
7 14 13 12 11 11 12 13 14 14 14 14 13 13 13 13 15 15 13 13 13 14 13 15 15 14 19 20 20 21 21 18 15 16 15 14 13 14 14 14 13 12
6 10 13 13 10 11 11 13 13 13 14 13 13 14 13 13 14 15 14 14 15 14 14 15 16 15 17 21 21 22 21 17 15 15 14 14 14 14 12 14 13 14
8 9 8 10 10 10 10 12 11 12 12 12 12 13 13 12 13 13 14 15 15 15 15 15 16 16 16 20 21 21 21 13 13 13 13 13 14 14 13 12 13 12
9 9 10 10 7 9 9 8 9 10 11 10 11 11 13 13 13 14 12 14 15 15 15 14 14 14 16 19 19 20 14 10 12 12 13 14 14 13 13 14 14 13
11 11 10 9 11 7 7 5 5 7 9 8 9 9 11 13 13 12 13 13 14 15 15 15 15 13 16 18 19 19 17 12 11 12 13 13 13 13 13 12 14 17
11 11 11 8 6 10 5 5 2 2 3 1 3 6 9 10 11 11 13 13 14 15 14 16 16 13 16 18 19 20 18 11 12 12 13 13 13 13 13 13 13 14
10 11 11 10 5 5 3 4 6 5 6 2 6 7 9 9 8 8 11 13 15 15 14 15 16 14 13 19 20 20 22 13 12 12 14 14 13 12 12 13 14 13
Wind_Direction
191 191 195 199 201 198 195 199 199 197 198 197 195 193 202 190 207 188 189 177 183 191 184 190 193 200 208 192 187 226 229 213 255 180 212 222 217 233 234 234 247 256
193 194 195 198 200 200 200 199 195 198 196 197 198 189 202 185 197 197 194 193 186 198 192 188 196 203 209 208 196 208 217 209 232 202 203 221 242 242 239 240 240 237
191 194 195 200 200 198 203 197 195 200 196 196 201 197 191 188 192 191 200 205 203 200 190 200 198 201 205 211 199 210 211 212 222 226 202 225 248 246 249 232 217 207
192 195 196 201 206 197 203 196 196 198 202 191 199 203 200 184 189 192 199 201 202 211 197 200 206 201 202 207 207 220 216 215 219 234 224 224 236 253 239 251 252 230
191 194 198 201 204 205 198 204 203 196 206 198 196 197 194 205 194 192 194 195 204 205 202 200 200 210 197 207 207 219 217 217 211 214 227 225 230 232 245 232 243 243
191 192 197 200 201 203 204 203 208 204 201 203 204 198 194 196 211 197 193 197 195 208 203 199 200 205 203 200 210 216 221 222 204 204 220 229 235 232 237 228 226 233
189 191 194 198 201 200 206 205 204 211 204 207 198 209 199 193 203 205 200 200 206 200 209 196 201 205 205 203 203 211 222 232 238 214 215 221 227 243 246 231 228 235
194 190 194 196 200 199 205 204 206 203 209 208 205 201 209 201 196 203 205 203 209 203 207 204 195 205 211 204 205 205 215 213 219 230 227 230 235 228 234 247 226 230
196 193 195 198 200 203 204 205 204 205 203 208 210 202 199 213 199 205 199 203 209 204 200 209 199 201 212 214 206 207 211 225 218 204 217 225 222 230 234 230 233 226
197 199 198 199 203 205 206 208 206 203 203 208 210 212 199 201 210 206 198 197 205 208 201 207 204 206 210 213 216 211 213 216 230 225 212 217 226 228 225 230 232 232
198 202 202 202 206 206 207 207 210 206 200 206 209 214 212 199 201 208 204 196 203 204 204 204 207 208 211 218 214 213 215 216 215 219 224 225 228 228 230 230 231 235
203 205 206 206 207 210 209 209 209 211 203 200 210 211 215 212 199 203 205 201 203 204 205 203 206 208 210 217 220 214 213 219 216 219 219 221 225 228 229 230 233 232
203 207 210 208 208 212 213 209 211 209 211 204 201 211 212 215 209 202 203 204 202 206 206 203 204 209 210 212 220 224 218 214 223 219 220 222 224 229 229 226 226 230
203 208 218 214 208 208 217 218 215 214 211 212 203 204 213 214 218 208 202 206 205 206 208 205 203 208 209 210 214 220 222 222 221 227 224 221 227 228 232 235 231 230
201 213 217 220 215 207 211 218 221 218 215 213 212 210 209 214 216 218 209 204 207 208 209 210 207 208 210 208 210 212 220 223 222 222 226 230 229 231 229 230 239 241
223 224 214 230 220 213 208 212 218 219 218 219 219 217 215 212 216 217 220 210 206 207 210 212 213 212 205 204 204 211 213 222 221 219 224 225 225 231 237 235 234 236
247 235 228 228 223 217 213 213 217 219 217 215 215 221 220 213 219 221 220 221 212 208 209 213 216 217 196 191 200 209 216 217 222 222 217 221 226 226 230 234 235 234
259 240 233 237 232 222 217 214 216 218 220 216 217 218 214 220 219 222 226 224 221 216 213 214 218 217 191 188 195 201 209 219 221 223 223 220 223 226 226 228 232 235
279 252 232 234 234 226 221 218 216 216 216 218 218 218 216 214 219 219 220 225 230 229 226 221 222 211 192 189 192 197 203 212 226 229 228 227 225 223 227 228 227 230
257 271 255 232 231 233 227 221 219 216 215 216 217 214 216 217 219 221 221 221 226 232 234 235 232 207 186 188 193 196 200 203 221 227 231 235 232 228 226 226 226 231
295 248 248 246 235 237 230 227 223 221 220 220 218 216 213 215 218 218 220 222 224 226 230 233 235 219 185 188 192 194 199 199 216 225 230 231 233 234 234 231 228 226
310 308 293 264 251 242 239 237 232 231 228 227 232 227 222 220 219 224 223 221 224 227 228 232 235 222 192 194 193 194 193 197 211 221 228 232 230 231 231 233 235 232
317 310 316 325 311 271 278 274 274 261 249 239 239 245 241 227 225 225 225 227 226 224 229 233 235 222 193 195 196 193 182 202 209 217 224 229 234 228 229 229 228 229
327 320 315 319 332 332 276 259 272 291 297 293 296 293 271 257 247 242 233 229 231 231 227 228 235 223 190 193 192 183 187 197 206 214 222 226 229 228 230 229 227 224
327 330 328 330 326 330 23 322 266 239 260 354 300 279 290 309 305 289 274 247 234 233 227 231 236 226 186 192 189 184 192 201 206 214 222 226 225 228 226 228 229 222
330 332 332 340 336 343 27 323 303 271 263 214 195 203 229 234 250 254 269 278 266 242 233 228 234 240 193 191 185 189 194 201 209 212 225 223 227 229 225 225 226 228